GW7239 Weather Reports


time (UTC)temp
C
wind
direction
speed
KPH
gust
KPH
rain 1hr
cm
rain 24hr
cm
rain mn
cm
humidity
%
barometer
mb
20260509031929 8 188 0.0 0.0 0.00 0.00 0.00 73 1005.8
20260509031426 8 152 1.6 1.6 0.00 0.00 0.00 72 1006.1
20260509030923 8 157 0.0 0.0 0.00 0.00 0.00 70 1006.0
20260509030421 8 126 0.0 0.0 0.00 0.00 0.00 66 1006.1
20260509025918 8 165 0.0 1.6 0.00 0.00 0.00 65 1006.3
20260509025413 9 165 1.6 1.6 0.00 0.00 0.00 67 1006.3
20260509024909 10 158 0.0 0.0 0.00 0.00 0.00 65 1006.3
20260509024405 10 145 1.6 1.6 0.00 0.00 0.00 58 1006.4
20260509023902 10 161 1.6 1.6 0.00 0.00 0.00 50 1006.5
20260509023359 10 188 0.0 0.0 0.00 0.00 0.00 43 1006.6
20260509022856 10 135 1.6 3.2 0.00 0.00 0.00 44 1006.4
20260509022353 10 188 0.0 0.0 0.00 0.00 0.00 40 1006.6
20260509021850 10 193 0.0 0.0 0.00 0.00 0.00 41 1006.5
20260509021347 10 158 1.6 1.6 0.00 0.00 0.00 41 1006.6
20260509020845 10 148 0.0 0.0 0.00 0.00 0.00 40 1006.5
20260509020343 11 189 0.0 1.6 0.00 0.00 0.00 40 1006.4
20260509015840 11 143 1.6 1.6 0.00 0.00 0.00 36 1006.3
20260509015338 11 198 0.0 1.6 0.00 0.00 0.00 36 1006.3
20260509014834 11 208 1.6 1.6 0.00 0.00 0.00 37 1006.5
20260509014331 12 195 0.0 0.0 0.00 0.00 0.00 35 1006.3
20260509013828 12 165 0.0 0.0 0.00 0.00 0.00 34 1006.4
20260509013325 12 185 0.0 0.0 0.00 0.00 0.00 34 1006.2
20260509012820 12 192 0.0 0.0 0.00 0.00 0.00 33 1006.3
20260509012317 13 183 0.0 0.0 0.00 0.00 0.00 33 1006.3
20260509011815 13 196 0.0 0.0 0.00 0.00 0.00 31 1006.4
20260509011312 13 191 0.0 0.0 0.00 0.00 0.00 31 1006.3
20260509010810 13 192 0.0 0.0 0.00 0.00 0.00 30 1006.2
20260509010306 14 193 1.6 1.6 0.00 0.00 0.00 34 1006.0
20260509005804 14 196 1.6 1.6 0.00 0.00 0.00 30 1006.0
20260509005305 14 212 1.6 3.2 0.00 0.00 0.00 29 1006.1
20260509004801 15 191 0.0 0.0 0.00 0.00 0.00 28 1006.1
20260509004258 15 196 3.2 3.2 0.00 0.00 0.00 29 1005.8
20260509003756 15 225 6.4 8.0 0.00 0.00 0.00 29 1006.1
20260509003254 15 195 1.6 3.2 0.00 0.00 0.00 29 1006.1
20260509002751 15 196 3.2 3.2 0.00 0.00 0.00 29 1005.9
20260509002248 15 210 3.2 3.2 0.00 0.00 0.00 27 1005.8
20260509001746 15 234 3.2 3.2 0.00 0.00 0.00 27 1005.8
20260509001241 16 221 1.6 3.2 0.00 0.00 0.00 28 1005.8
20260509000739 16 194 1.6 3.2 0.00 0.00 0.00 26 1005.9
20260509000236 16 201 1.6 1.6 0.00 0.00 0.00 27 1005.7
20260508235733 16 173 1.6 1.6 0.00 0.00 0.00 28 1005.9
20260508235230 16 24 3.2 4.8 0.00 0.00 0.00 30 1005.9
20260508234727 16 251 6.4 9.7 0.00 0.00 0.00 27 1005.8
20260508234223 16 232 6.4 8.0 0.00 0.00 0.00 27 1005.7
20260508233723 16 255 9.7 12.9 0.00 0.00 0.00 29 1005.9
20260508233221 16 255 9.7 14.5 0.00 0.00 0.00 31 1005.7
20260508232718 17 229 6.4 8.0 0.00 0.00 0.00 29 1005.8
20260508232214 17 290 4.8 4.8 0.00 0.00 0.00 25 1005.6
20260508231712 17 267 8.0 9.7 0.00 0.00 0.00 29 1005.3
20260508231209 17 232 9.7 11.3 0.00 0.00 0.00 26 1005.7
20260508230706 17 238 9.7 12.9 0.00 0.00 0.00 30 1005.6
20260508230202 17 209 3.2 8.0 0.00 0.00 0.00 26 1005.2
20260508225700 17 282 11.3 12.9 0.00 0.00 0.00 29 1005.7
20260508225156 17 231 9.7 12.9 0.00 0.00 0.00 29 1005.3
20260508224654 17 259 12.9 16.1 0.00 0.00 0.00 26 1005.5
20260508224151 17 276 14.5 16.1 0.00 0.00 0.00 25 1005.1
20260508223649 17 247 8.0 8.0 0.00 0.00 0.00 26 1005.5
20260508223146 17 202 3.2 4.8 0.00 0.00 0.00 25 1005.5
20260508222643 17 234 14.5 16.1 0.00 0.00 0.00 29 1005.5
20260508222140 17 207 3.2 4.8 0.00 0.00 0.00 31 1005.6
20260508221636 17 222 9.7 11.3 0.00 0.00 0.00 34 1005.6
20260508221132 17 258 11.3 12.9 0.00 0.00 0.00 32 1005.6
20260508220629 17 277 14.5 16.1 0.00 0.00 0.00 30 1005.5
20260508220126 17 240 9.7 11.3 0.00 0.00 0.00 34 1005.5
20260508215622 17 196 14.5 16.1 0.00 0.00 0.00 37 1005.7
20260508215119 17 244 11.3 16.1 0.00 0.00 0.00 34 1005.5
20260508214616 17 250 3.2 3.2 0.00 0.00 0.00 32 1005.6
20260508214113 16 280 12.9 14.5 0.00 0.00 0.00 36 1005.2
20260508213610 17 232 12.9 14.5 0.00 0.00 0.00 37 1005.5
20260508213106 16 235 12.9 16.1 0.00 0.00 0.00 37 1005.7
20260508212602 16 215 11.3 14.5 0.00 0.00 0.00 39 1005.9
20260508212059 17 235 9.7 11.3 0.00 0.00 0.00 37 1005.8
20260508211554 17 225 11.3 16.1 0.00 0.00 0.00 36 1005.7
20260508211051 16 229 4.8 4.8 0.00 0.00 0.00 32 1005.9
20260508210548 17 276 17.7 22.5 0.00 0.00 0.00 34 1006.0
20260508210045 17 287 14.5 17.7 0.00 0.00 0.00 34 1005.8
20260508205542 17 264 9.7 12.9 0.00 0.00 0.00 32 1005.6
20260508205038 16 230 8.0 11.3 0.00 0.00 0.00 31 1006.0
20260508204535 16 208 6.4 8.0 0.00 0.00 0.00 33 1005.9
20260508204031 16 218 4.8 4.8 0.00 0.00 0.00 33 1006.3
20260508203527 16 261 16.1 20.9 0.00 0.00 0.00 32 1006.1
20260508203023 16 233 4.8 4.8 0.00 0.00 0.00 33 1006.2
20260508202520 16 260 11.3 16.1 0.00 0.00 0.00 37 1006.6
20260508202017 16 213 8.0 9.7 0.00 0.00 0.00 35 1006.5
20260508201514 16 253 16.1 17.7 0.00 0.00 0.00 41 1006.4
20260508201010 16 284 11.3 14.5 0.00 0.00 0.00 35 1006.7
20260508200508 16 271 11.3 11.3 0.00 0.00 0.00 35 1006.9
20260508200003 16 265 9.7 14.5 0.00 0.00 0.00 34 1006.6
20260508195500 16 248 3.2 4.8 0.00 0.00 0.00 33 1006.9
20260508194956 16 283 14.5 16.1 0.00 0.00 0.00 37 1007.2
20260508194453 16 266 8.0 11.3 0.00 0.00 0.00 38 1007.2
20260508193950 15 231 4.8 4.8 0.00 0.00 0.00 34 1007.2
20260508193447 15 195 11.3 14.5 0.00 0.00 0.00 39 1007.3
20260508192943 15 230 12.9 14.5 0.00 0.00 0.00 38 1007.1
20260508192440 16 275 17.7 22.5 0.00 0.00 0.00 35 1007.3
20260508191937 16 252 11.3 14.5 0.00 0.00 0.00 39 1007.5
20260508191435 15 276 8.0 11.3 0.00 0.00 0.00 34 1007.5
20260508190931 16 310 11.3 17.7 0.00 0.00 0.00 35 1007.6
20260508190428 15 219 1.6 1.6 0.00 0.00 0.00 35 1007.5
20260508185924 15 226 8.0 9.7 0.00 0.00 0.00 42 1007.6
20260508185422 15 262 9.7 11.3 0.00 0.00 0.00 38 1007.9
20260508184919 15 282 9.7 11.3 0.00 0.00 0.00 38 1007.7
20260508184417 15 276 9.7 11.3 0.00 0.00 0.00 34 1007.9
20260508183913 15 257 8.0 9.7 0.00 0.00 0.00 37 1007.9
20260508183410 15 248 16.1 17.7 0.00 0.00 0.00 42 1008.2
20260508182905 15 56 4.8 8.0 0.00 0.00 0.00 34 1007.9
20260508182403 15 222 11.3 16.1 0.00 0.00 0.00 37 1008.0
20260508181858 15 255 6.4 9.7 0.00 0.00 0.00 34 1008.2
20260508181355 15 284 4.8 4.8 0.00 0.00 0.00 34 1008.2
20260508180852 15 275 6.4 11.3 0.00 0.00 0.00 36 1008.3
20260508180349 14 198 0.0 1.6 0.00 0.00 0.00 36 1008.4
20260508175844 14 209 11.3 12.9 0.00 0.00 0.00 34 1008.5
20260508175341 15 260 12.9 17.7 0.00 0.00 0.00 39 1008.5
20260508174840 14 200 3.2 3.2 0.00 0.00 0.00 40 1008.7
20260508174337 15 279 14.5 20.9 0.00 0.00 0.00 39 1008.6
20260508173833 14 194 0.0 0.0 0.00 0.00 0.00 36 1008.9
20260508173330 13 235 6.4 8.0 0.00 0.00 0.00 38 1008.9
20260508172826 13 261 16.1 17.7 0.00 0.00 0.00 42 1008.8
20260508172323 13 252 14.5 16.1 0.00 0.00 0.00 40 1008.9
20260508171820 13 231 11.3 12.9 0.00 0.00 0.00 39 1009.1
20260508171316 13 229 3.2 3.2 0.00 0.00 0.00 36 1009.5
20260508170813 13 281 9.7 11.3 0.00 0.00 0.00 40 1009.2
20260508170311 13 247 11.3 16.1 0.00 0.00 0.00 40 1009.3
20260508165808 13 249 8.0 11.3 0.00 0.00 0.00 39 1009.6
20260508165307 13 256 4.8 4.8 0.00 0.00 0.00 36 1009.6
20260508164801 13 256 8.0 9.7 0.00 0.00 0.00 41 1009.7
20260508164257 13 286 11.3 11.3 0.00 0.00 0.00 38 1009.7
20260508163755 13 258 8.0 9.7 0.00 0.00 0.00 40 1009.9
20260508163253 13 247 9.7 11.3 0.00 0.00 0.00 37 1009.7
20260508162748 13 284 16.1 16.1 0.00 0.00 0.00 42 1009.8
20260508162246 13 275 9.7 12.9 0.00 0.00 0.00 38 1009.7
20260508161743 13 251 14.5 16.1 0.00 0.00 0.00 38 1009.7
20260508161240 13 234 6.4 8.0 0.00 0.00 0.00 47 1009.9
20260508160737 13 193 4.8 4.8 0.00 0.00 0.00 36 1009.9
20260508160236 12 202 1.6 3.2 0.00 0.00 0.00 40 1010.1
20260508155732 12 227 8.0 9.7 0.00 0.00 0.00 43 1010.2
20260508155229 12 265 11.3 14.5 0.00 0.00 0.00 45 1010.3
20260508154726 12 231 4.8 4.8 0.00 0.00 0.00 46 1010.4
20260508154223 12 265 6.4 8.0 0.00 0.00 0.00 45 1010.2
20260508153720 12 180 1.6 3.2 0.00 0.00 0.00 43 1010.2
20260508153217 12 230 4.8 4.8 0.00 0.00 0.00 47 1010.4
20260508152714 12 197 3.2 3.2 0.00 0.00 0.00 52 1010.2
20260508152209 12 208 3.2 4.8 0.00 0.00 0.00 51 1010.1
20260508151706 13 180 1.6 1.6 0.00 0.00 0.00 42 1010.4
20260508151203 12 185 0.0 0.0 0.00 0.00 0.00 44 1010.3
20260508150659 11 209 3.2 3.2 0.00 0.00 0.00 47 1010.4
20260508150156 12 205 8.0 9.7 0.00 0.00 0.00 49 1010.3
20260508145652 11 211 1.6 1.6 0.00 0.00 0.00 48 1010.4
20260508145148 11 226 3.2 3.2 0.00 0.00 0.00 50 1010.4
20260508144646 11 190 3.2 3.2 0.00 0.00 0.00 52 1010.3
20260508144144 11 171 3.2 3.2 0.00 0.00 0.00 52 1010.6
20260508143641 11 158 3.2 3.2 0.00 0.00 0.00 53 1010.4
20260508143137 11 134 4.8 4.8 0.00 0.00 0.00 53 1010.5
20260508142634 11 157 3.2 3.2 0.00 0.00 0.00 54 1010.8
20260508142131 11 177 3.2 3.2 0.00 0.00 0.00 54 1010.7
20260508141627 11 160 0.0 0.0 0.00 0.00 0.00 55 1010.6
20260508141125 11 175 3.2 3.2 0.00 0.00 0.00 54 1010.6
20260508140622 11 167 1.6 1.6 0.00 0.00 0.00 61 1010.9
20260508140119 10 182 0.0 0.0 0.00 0.00 0.00 59 1010.9
20260508135614 10 190 3.2 3.2 0.00 0.00 0.00 61 1010.9
20260508135110 10 162 3.2 3.2 0.00 0.00 0.00 62 1010.9
20260508134608 10 197 3.2 3.2 0.00 0.00 0.00 62 1011.0
20260508134105 10 163 3.2 3.2 0.00 0.00 0.00 62 1010.9
20260508133601 10 186 1.6 3.2 0.00 0.00 0.00 65 1011.1
20260508133059 10 178 4.8 8.0 0.00 0.00 0.00 66 1011.1
20260508132556 10 181 4.8 4.8 0.00 0.00 0.00 64 1011.2
20260508132053 9 169 3.2 3.2 0.00 0.00 0.00 64 1011.1
20260508131548 9 172 4.8 4.8 0.00 0.00 0.00 64 1011.2
20260508131045 9 182 0.0 1.6 0.00 0.00 0.00 65 1011.1
20260508130542 9 177 1.6 1.6 0.00 0.00 0.00 65 1011.0
20260508130039 8 169 3.2 3.2 0.00 0.00 0.00 64 1011.1
20260508125534 8 183 1.6 1.6 0.00 0.00 0.00 66 1011.1
20260508125032 8 180 3.2 3.2 0.00 0.00 0.00 68 1011.1
20260508124530 7 157 4.8 4.8 0.00 0.00 0.00 73 1010.9
20260508124027 7 167 3.2 3.2 0.00 0.00 0.00 74 1011.0
20260508123526 7 177 1.6 1.6 0.00 0.00 0.00 75 1011.0
20260508123022 7 163 4.8 4.8 0.00 0.00 0.00 75 1011.0
20260508122519 6 162 4.8 4.8 0.00 0.00 0.00 77 1011.0
20260508122015 6 177 0.0 0.0 0.00 0.00 0.00 78 1010.8
20260508121514 6 183 1.6 1.6 0.00 0.00 0.00 80 1010.8
20260508121012 5 191 1.6 1.6 0.00 0.00 0.00 83 1010.9
20260508120509 5 181 0.0 0.0 0.00 0.00 0.00 85 1010.6
20260508120007 5 177 0.0 0.0 0.00 0.00 0.00 86 1010.7
20260508115504 5 187 0.0 1.6 0.00 0.00 0.00 88 1010.8
20260508115000 4 186 1.6 1.6 0.00 0.00 0.00 91 1010.8
20260508114458 4 190 0.0 0.0 0.00 0.00 0.00 94 1010.5
20260508113954 3 189 0.0 0.0 0.00 0.00 0.00 95 1010.5
20260508113452 3 172 0.0 0.0 0.00 0.00 0.00 95 1010.4
20260508112949 3 184 0.0 0.0 0.00 0.00 0.00 95 1010.4
20260508112445 2 189 0.0 0.0 0.00 0.00 0.00 95 1010.2
20260508111942 2 183 0.0 0.0 0.00 0.00 0.00 95 1010.4
20260508111439 2 179 0.0 0.0 0.00 0.00 0.00 95 1010.3
20260508110936 1 185 0.0 0.0 0.00 0.00 0.00 95 1010.6
20260508110434 1 186 0.0 0.0 0.00 0.00 0.00 95 1010.2
20260508105933 1 166 0.0 0.0 0.00 0.00 0.00 95 1010.3
20260508105430 1 147 0.0 0.0 0.00 0.00 0.00 94 1010.3
20260508104927 1 136 0.0 0.0 0.00 0.00 0.00 94 1010.2
20260508104425 1 136 0.0 0.0 0.00 0.00 0.00 94 1010.2
20260508103921 1 140 0.0 0.0 0.00 0.00 0.00 94 1010.0
20260508103418 1 138 0.0 0.0 0.00 0.00 0.00 94 1010.1
20260508102915 1 138 0.0 0.0 0.00 0.00 0.00 94 1010.0
20260508102414 1 148 0.0 0.0 0.00 0.00 0.00 94 1010.0
20260508101911 1 170 0.0 0.0 0.00 0.00 0.00 94 1010.3
20260508101408 1 161 0.0 0.0 0.00 0.00 0.00 94 1010.3
20260508100905 1 139 0.0 0.0 0.00 0.00 0.00 94 1009.9
20260508100404 1 136 0.0 0.0 0.00 0.00 0.00 93 1010.3
20260508095859 1 125 0.0 0.0 0.00 0.00 0.00 93 1010.0
20260508095358 1 125 0.0 0.0 0.00 0.00 0.00 93 1010.5
20260508094854 1 127 0.0 0.0 0.00 0.00 0.00 93 1010.3
20260508094351 1 131 0.0 0.0 0.00 0.00 0.00 93 1010.1
20260508093848 1 133 0.0 0.0 0.00 0.00 0.00 93 1010.2
20260508093345 2 130 0.0 0.0 0.00 0.00 0.00 92 1010.4
20260508092843 2 128 0.0 0.0 0.00 0.00 0.00 92 1010.3
20260508092340 2 148 0.0 0.0 0.00 0.00 0.00 92 1010.3
20260508091838 2 149 0.0 0.0 0.00 0.00 0.00 92 1010.2
20260508091334 2 162 0.0 0.0 0.00 0.00 0.00 92 1010.2
20260508090832 2 143 0.0 0.0 0.00 0.00 0.00 92 1010.3
20260508090331 2 143 0.0 0.0 0.00 0.00 0.00 91 1010.4
20260508085831 2 174 0.0 0.0 0.00 0.00 0.00 91 1010.3
20260508085329 2 185 0.0 0.0 0.00 0.00 0.00 91 1010.2
20260508084825 2 187 0.0 0.0 0.00 0.00 0.00 91 1010.4
20260508084322 3 151 0.0 0.0 0.00 0.00 0.00 91 1010.4
20260508083820 3 184 0.0 0.0 0.00 0.00 0.00 90 1010.3
20260508083317 3 121 0.0 0.0 0.00 0.00 0.00 90 1010.5
20260508082816 3 120 0.0 0.0 0.00 0.00 0.00 90 1010.5
20260508082315 3 134 0.0 0.0 0.00 0.00 0.00 89 1010.4
20260508081812 3 148 0.0 0.0 0.00 0.00 0.00 89 1010.4
20260508081308 4 144 0.0 0.0 0.00 0.00 0.00 89 1010.3
20260508080806 4 173 0.0 0.0 0.00 0.00 0.00 88 1010.5
20260508080304 4 142 0.0 0.0 0.00 0.00 0.00 87 1010.4
20260508075759 4 183 0.0 0.0 0.00 0.00 0.00 87 1010.5
20260508075256 4 162 0.0 0.0 0.00 0.00 0.00 86 1010.5
20260508074754 4 141 0.0 0.0 0.00 0.00 0.00 86 1010.5
20260508074251 5 167 0.0 0.0 0.00 0.00 0.00 85 1010.4
20260508073748 5 149 0.0 0.0 0.00 0.00 0.00 85 1010.6
20260508073246 5 181 0.0 0.0 0.00 0.00 0.00 86 1010.5
20260508072742 5 158 0.0 0.0 0.00 0.00 0.00 85 1010.6
20260508072239 5 179 0.0 0.0 0.00 0.00 0.00 84 1010.5
20260508071736 5 174 0.0 0.0 0.00 0.00 0.00 85 1010.5
20260508071235 5 155 0.0 0.0 0.00 0.00 0.00 84 1010.7
20260508070732 5 188 0.0 0.0 0.00 0.00 0.00 84 1010.5
20260508070231 5 183 0.0 0.0 0.00 0.00 0.00 83 1010.4
20260508065727 5 184 0.0 0.0 0.00 0.00 0.00 82 1010.5
20260508065225 5 171 0.0 0.0 0.00 0.00 0.00 81 1010.4
20260508064722 5 175 0.0 0.0 0.00 0.00 0.00 81 1010.8
20260508064221 5 154 0.0 0.0 0.00 0.00 0.00 80 1010.6
20260508063718 5 172 0.0 0.0 0.00 0.00 0.00 80 1010.9
20260508063216 5 189 0.0 0.0 0.00 0.00 0.00 79 1010.7
20260508062713 5 188 0.0 0.0 0.00 0.00 0.00 80 1010.7
20260508062210 5 190 0.0 0.0 0.00 0.00 0.00 79 1010.8
20260508061707 5 193 0.0 0.0 0.00 0.00 0.00 80 1010.7
20260508061204 5 189 0.0 0.0 0.00 0.00 0.00 79 1011.0
20260508060702 5 175 0.0 0.0 0.00 0.00 0.00 78 1011.0
20260508060158 5 193 0.0 0.0 0.00 0.00 0.00 78 1010.9
20260508055653 5 181 0.0 0.0 0.00 0.00 0.00 78 1011.2
20260508055151 5 177 0.0 0.0 0.00 0.00 0.00 77 1011.0
20260508054647 5 185 0.0 0.0 0.00 0.00 0.00 77 1011.0
20260508054145 5 184 0.0 0.0 0.00 0.00 0.00 77 1011.0
20260508053642 5 192 0.0 0.0 0.00 0.00 0.00 76 1011.1
20260508053139 5 184 0.0 0.0 0.00 0.00 0.00 76 1011.1
20260508052636 5 188 0.0 0.0 0.00 0.00 0.00 76 1010.9
20260508052133 5 186 0.0 0.0 0.00 0.00 0.00 76 1011.0
20260508051629 5 193 0.0 0.0 0.00 0.00 0.00 76 1010.8
20260508051125 6 188 0.0 0.0 0.00 0.00 0.00 77 1010.9
20260508050621 5 181 0.0 0.0 0.00 0.00 0.00 76 1011.0
20260508050119 5 195 0.0 0.0 0.00 0.00 0.00 76 1010.9
20260508045615 5 187 0.0 0.0 0.00 0.00 0.00 76 1011.0
20260508045113 5 188 0.0 0.0 0.00 0.00 0.00 77 1010.6
20260508044610 5 154 0.0 0.0 0.00 0.00 0.00 76 1010.9
20260508044106 5 166 0.0 0.0 0.00 0.00 0.00 76 1010.7
20260508043602 5 188 0.0 0.0 0.00 0.00 0.00 76 1010.8
20260508043100 5 188 0.0 0.0 0.00 0.00 0.00 76 1010.8
20260508042556 6 177 0.0 0.0 0.00 0.00 0.00 75 1011.1
20260508042054 6 187 0.0 0.0 0.00 0.00 0.00 74 1010.8
20260508041550 6 152 1.6 1.6 0.00 0.00 0.00 74 1010.8
20260508041047 6 147 0.0 0.0 0.00 0.00 0.00 73 1010.7
20260508040543 6 167 0.0 0.0 0.00 0.00 0.00 72 1010.6
20260508040041 6 140 0.0 0.0 0.00 0.00 0.00 71 1010.6
20260508035538 6 154 0.0 1.6 0.00 0.00 0.00 71 1010.8
20260508035035 7 149 0.0 1.6 0.00 0.00 0.00 70 1010.6
20260508034532 7 184 0.0 0.0 0.00 0.00 0.00 70 1010.7
20260508034029 7 189 0.0 0.0 0.00 0.00 0.00 70 1010.7
20260508033527 7 177 0.0 0.0 0.00 0.00 0.00 70 1010.9
20260508033025 7 189 0.0 0.0 0.00 0.00 0.00 71 1010.6
20260508032521 7 195 0.0 0.0 0.00 0.00 0.00 70 1010.8